Flag for Finland Weather past 2 weeks in Kemi, Finland

21 °F


Feels Like: 21 °F
Forecast: 22 / 41 °F
Wind: 1 mph from Northeast

Location: Kemi Airport

Current Time: Oct 7, 2015 at 2:30:14 AM

Latest Report: Oct 7, 2015 at 1:50 AM

Visibility: 10 mi

Pressure: 30.51 "Hg

Humidity: 93%

Dew point: 19 °F

Location of KemiLocation

Historic Weather in Kemi — Graph


Kemi temperature yesterday

Maximum temperature yesterday: 43 °F (at 2:20 PM)
Minimum temperature yesterday: 23 °F (at 7:50 AM)
Average temperature yesterday: 31 °F

Past Weeks' High & Low Weather Summary

High57 °F (Sep 24, 10:50 AM)100% (Sep 22, 4:20 AM)30.60 "Hg (Sep 22, 4:20 AM)
Low21 °F (Oct 7, 12:20 AM)46% (Oct 3, 3:20 PM)28.91 "Hg (Oct 2, 3:50 PM)
Average47 °F83%29.92 "Hg
* Reported Sep 22 1:20 AM — Oct 7 1:20 AM, Kemi, Weather by CustomWeather, © 2015

Note: Actual official high and low records may vary slightly from our data, if they occured in-between our weather recording intervals... More about our weather records


Kemi weather history for previous 24 hours

Time TempWeatherWind HumidityBarometerVisibility
1:20 AM
Wed, Oct 7
21 °FClear.2 mph100%30.51 "Hg10 mi
12:50 AM21 °FClear.1 mph93%30.51 "Hg10 mi
12:20 AM21 °FClear.No wind93%30.48 "Hg10 mi
11:50 PM
Tue, Oct 6
23 °FClear.1 mph93%30.48 "Hg10 mi
11:20 PM25 °FClear.No wind93%30.48 "Hg10 mi
10:50 PM25 °FClear.No wind93%30.48 "Hg10 mi
10:20 PM25 °FClear.No wind100%30.48 "Hg10 mi
9:50 PM25 °FClear.No wind93%30.48 "Hg10 mi
9:20 PM25 °FClear.No wind93%30.48 "Hg10 mi
8:50 PM27 °FClear.No wind93%30.48 "Hg10 mi
8:20 PM27 °FClear.No wind93%30.45 "Hg10 mi
7:50 PM28 °FClear.No wind86%30.45 "Hg10 mi
7:20 PM28 °FSunny.No wind86%30.45 "Hg10 mi
6:50 PM30 °FSunny.1 mph86%30.45 "Hg10 mi
6:20 PM34 °FSunny.No wind75%30.45 "Hg10 mi
5:50 PM41 °FSunny.3 mph49%30.45 "Hg10 mi
5:20 PM41 °FSunny.2 mph53%30.45 "Hg10 mi
4:50 PM43 °FSunny.5 mph46%30.45 "Hg10 mi
4:20 PM43 °FSunny.2 mph49%30.45 "Hg10 mi
3:50 PM43 °FPassing clouds.5 mph49%30.45 "HgN/A
3:20 PM43 °FPassing clouds.5 mph53%30.48 "HgN/A
2:50 PM43 °FPassing clouds.5 mph53%30.48 "HgN/A
2:20 PM43 °FSunny.7 mph57%30.48 "Hg10 mi
1:50 PM41 °FSunny.7 mph61%30.48 "Hg10 mi
1:20 PM41 °FPassing clouds.7 mph61%30.48 "HgN/A
12:50 PM39 °FSunny.3 mph70%30.45 "Hg10 mi
12:20 PM37 °FSunny.3 mph75%30.45 "Hg10 mi
11:50 AM36 °FSunny.3 mph81%30.45 "Hg10 mi
11:20 AM34 °FSunny.5 mph87%30.45 "Hg10 mi
10:50 AM32 °FSunny.5 mph93%30.45 "Hg10 mi
10:20 AM30 °FSunny.2 mph93%30.45 "Hg10 mi
9:50 AM28 °FSunny.2 mph100%30.45 "Hg10 mi
9:20 AM27 °FSunny.3 mph100%30.45 "Hg10 mi
8:50 AM27 °FSunny.2 mph100%30.45 "Hg10 mi
8:20 AM25 °FClear.5 mph100%30.45 "Hg10 mi
7:50 AM23 °FClear.5 mph100%30.45 "Hg10 mi
7:20 AM25 °FClear.5 mph100%30.42 "Hg10 mi
6:50 AM27 °FClear.3 mph100%30.42 "Hg10 mi
6:20 AM27 °FClear.3 mph100%30.42 "Hg10 mi
5:50 AM27 °FClear.3 mph100%30.42 "Hg10 mi
5:20 AM27 °FClear.5 mph100%30.42 "Hg10 mi
4:50 AM27 °FClear.5 mph100%30.42 "Hg10 mi
4:20 AM27 °FClear.6 mph100%30.42 "Hg10 mi
3:50 AM28 °FClear.2 mph93%30.39 "Hg10 mi
3:20 AM28 °FClear.5 mph100%30.39 "Hg10 mi
2:50 AM28 °FClear.5 mph100%30.39 "Hg10 mi
2:20 AM32 °FClear.6 mph93%30.39 "Hg10 mi
Weather by CustomWeather, © 2015

See weather overviewHow to use our weather pages